Zurück zum Katalog

DMSP 5D-2 F9

USA 29

AktivWetterSSO
NORAD 18822·PAYLOAD·🇺🇸 United States

Gestartet Feb 3, 1988 von Vandenberg Space Force Base

Loading…

Nächste Überflüge (nächste 24 Stunden)

TLE

AktuellSource: Space-Track

Epoche: Sep 14, 2026, 09:20 UTC

1 18822U 88006A   26257.38913116  .00000148  00000-0  74965-4 0  9995
2 18822  98.3676  60.3202 0006772 156.7922 203.3567 14.28867042  9017

Verfolge DMSP 5D-2 F9 in Echtzeit mit AllMySat

Download on the App Store